Date String (YYYY-MM-DD hh:mm:ss) UTC,Instrument flags,Ambient pressure (hPa),Sample flow (lpm),Bypass flow (lpm),Sample temperature (°C),Ambient temperature (°C),ASC tube jacket temperature (°C),LED temperature (°C),Box temperature (°C),Sample RH (%),Span deviation,Mass concentration (μg/m³),Mass concentration (μg/m³),Mass concentration (μg/m³)
DateTimeUTC,F1_M11,P_M11,Q1_M11,Q2_M11,T1_M11,T2_M11,T3_M11,T4_M11,T5_M11,U1_M11,ZSPAN_M11,X0_M11,X2_M11,X1_M11
2022-06-25 06:00:00,,0827.5,5.00,0.00,29.6,27.9,00.0,38.5,31.4,17.0,0000.0,0006.27,0002.46,0001.66
2022-06-25 06:01:00,,0827.5,5.01,0.00,29.6,28.0,00.0,38.5,31.4,16.9,0000.0,0006.11,0002.42,0001.66
2022-06-25 06:02:00,,0827.5,5.00,0.00,29.6,28.1,00.0,38.5,31.4,16.9,0000.0,0006.87,0002.43,0001.66
2022-06-25 06:03:00,,0827.5,4.99,0.00,29.6,28.2,00.0,38.5,31.5,17.3,0000.0,0007.51,0002.44,0001.66
2022-06-25 06:04:00,,0827.5,5.00,0.00,29.6,28.3,00.0,38.5,31.5,17.1,0000.0,0007.65,0002.39,0001.67
2022-06-25 06:05:00,,0827.4,5.00,0.00,29.6,28.4,00.0,38.5,31.5,16.9,0000.0,0007.52,0002.35,0001.67
2022-06-25 06:06:00,,0827.4,5.00,0.00,29.6,28.5,00.0,38.5,31.5,16.8,0000.0,0007.75,0002.36,0001.66
2022-06-25 06:07:00,,0827.4,5.00,0.00,29.7,28.5,00.0,38.5,31.5,16.7,0000.0,0007.90,0002.35,0001.66
2022-06-25 06:08:00,,0827.5,5.01,0.00,29.7,28.6,00.0,38.5,31.5,16.8,0000.0,0007.92,0002.34,0001.66
2022-06-25 06:09:00,,0827.4,5.01,0.00,29.7,28.6,00.0,38.5,31.6,16.7,0000.0,0007.86,0002.32,0001.67
2022-06-25 06:10:00,,0827.5,5.00,0.00,29.7,28.7,00.0,38.5,31.6,16.7,0000.0,0007.35,0002.32,0001.65
2022-06-25 06:11:00,,0827.6,5.01,0.00,29.7,28.7,00.0,38.5,31.6,17.1,0000.0,0007.01,0002.32,0001.65
2022-06-25 06:12:00,,0827.5,4.99,0.00,29.8,28.7,00.0,38.5,31.7,18.3,0000.0,0007.42,0002.36,0001.66
2022-06-25 06:13:00,,0827.5,5.00,0.00,29.8,28.8,00.0,38.6,31.7,18.5,0000.0,0007.42,0002.39,0001.68
2022-06-25 06:14:00,,0827.6,5.01,0.00,29.8,28.8,00.0,38.6,31.7,17.9,0000.0,0006.77,0002.44,0001.69
2022-06-25 06:15:00,,0827.6,5.01,0.00,29.8,28.8,00.0,38.6,31.7,17.4,0000.0,0006.81,0002.51,0001.68
2022-06-25 06:16:00,,0827.7,5.00,0.00,29.8,28.9,00.0,38.6,31.7,18.0,0000.0,0006.51,0002.54,0001.70
2022-06-25 06:17:00,,0827.7,4.99,0.00,29.8,28.9,00.0,38.6,31.8,18.6,0000.0,0006.14,0002.60,0001.73
2022-06-25 06:18:00,,0827.6,5.00,0.00,29.9,28.9,00.0,38.6,31.7,17.8,0000.0,0005.85,0002.63,0001.76
2022-06-25 06:19:00,,0827.6,5.00,0.00,29.9,28.9,00.0,38.6,31.7,17.7,0000.0,0006.10,0002.65,0001.77
2022-06-25 06:20:00,,0827.6,5.00,0.00,29.9,29.0,00.0,38.7,31.8,18.5,0000.0,0006.19,0002.65,0001.79
2022-06-25 06:21:00,,0827.5,5.00,0.00,29.9,29.0,00.0,38.7,31.8,17.9,0000.0,0006.88,0002.64,0001.81
2022-06-25 06:22:00,,0827.6,5.00,0.00,29.9,29.0,00.0,38.7,31.8,17.6,0000.0,0007.63,0002.68,0001.82
2022-06-25 06:23:00,,0827.6,5.00,0.00,29.9,29.0,00.0,38.7,31.9,17.8,0000.0,0007.31,0002.71,0001.82
2022-06-25 06:24:00,,0827.6,5.00,0.00,30.0,29.0,00.0,38.7,31.9,18.1,0000.0,0007.02,0002.75,0001.83
2022-06-25 06:25:00,,0827.6,5.00,0.00,30.0,28.5,00.0,38.7,31.8,18.8,0000.0,0006.93,0002.75,0001.85
2022-06-25 06:26:00,,0827.6,4.99,0.00,29.9,27.8,00.0,38.6,31.5,19.6,0000.0,0006.70,0002.76,0001.90
2022-06-25 06:27:00,,0827.5,5.01,0.00,29.8,27.6,00.0,38.6,31.4,20.0,0000.0,0006.75,0002.82,0001.93
2022-06-25 06:28:00,,0827.5,5.00,0.00,29.7,27.6,00.0,38.6,31.4,20.0,0000.0,0006.80,0002.84,0001.96
2022-06-25 06:29:00,,0827.5,5.01,0.00,29.7,27.6,00.0,38.5,31.4,19.6,0000.0,0007.47,0002.92,0001.99
2022-06-25 06:30:00,,0827.5,5.00,0.00,29.7,27.7,00.0,38.5,31.4,19.4,0000.0,0007.79,0002.98,0002.01
2022-06-25 06:31:00,,0827.5,4.99,0.00,29.6,27.8,00.0,38.5,31.4,19.4,0000.0,0007.82,0003.00,0002.02
2022-06-25 06:32:00,,0827.5,5.00,0.00,29.6,28.0,00.0,38.5,31.4,19.2,0000.0,0007.86,0003.06,0002.04
2022-06-25 06:33:00,,0827.4,5.00,0.00,29.6,28.1,00.0,38.5,31.4,19.1,0000.0,0007.51,0003.10,0002.05
2022-06-25 06:34:00,,0827.5,5.00,0.00,29.6,28.2,00.0,38.5,31.4,19.0,0000.0,0007.55,0003.12,0002.07
2022-06-25 06:35:00,,0827.4,5.00,0.00,29.6,28.2,00.0,38.5,31.4,19.4,0000.0,0007.61,0003.14,0002.08
2022-06-25 06:36:00,,0827.5,5.01,0.00,29.6,28.3,00.0,38.5,31.5,19.6,0000.0,0007.61,0003.13,0002.07
2022-06-25 06:37:00,,0827.5,5.00,0.00,29.6,28.4,00.0,38.5,31.5,19.5,0000.0,0007.63,0003.12,0002.05
2022-06-25 06:38:00,,0827.5,4.99,0.00,29.7,28.4,00.0,38.5,31.5,19.6,0000.0,0007.59,0003.11,0002.05
2022-06-25 06:39:00,,0827.5,4.99,0.00,29.7,28.5,00.0,38.5,31.5,19.8,0000.0,0007.49,0003.07,0002.03
2022-06-25 06:40:00,,0827.5,5.00,0.00,29.7,28.5,00.0,38.5,31.6,19.7,0000.0,0006.98,0003.01,0002.02
2022-06-25 06:41:00,,0827.5,5.01,0.00,29.7,28.6,00.0,38.5,31.6,19.0,0000.0,0006.10,0002.95,0002.01
2022-06-25 06:42:00,,0827.5,5.00,0.00,29.7,28.6,00.0,38.5,31.6,18.7,0000.0,0006.08,0002.97,0002.01
2022-06-25 06:43:00,,0827.6,4.99,0.00,29.7,28.7,00.0,38.5,31.6,18.7,0000.0,0005.33,0002.94,0001.99
2022-06-25 06:44:00,,0827.7,5.01,0.00,29.7,28.7,00.0,38.5,31.6,18.9,0000.0,0005.07,0002.89,0001.99
2022-06-25 06:45:00,,0827.6,5.01,0.00,29.8,28.7,00.0,38.6,31.7,18.9,0000.0,0005.05,0002.90,0001.98
2022-06-25 06:46:00,,0827.7,4.99,0.00,29.8,28.8,00.0,38.6,31.7,18.5,0000.0,0005.04,0002.89,0001.98
2022-06-25 06:47:00,,0827.6,5.00,0.00,29.8,28.8,00.0,38.6,31.7,18.6,0000.0,0005.03,0002.91,0001.98
2022-06-25 06:48:00,,0827.6,5.01,0.00,29.8,28.8,00.0,38.6,31.7,18.1,0000.0,0004.97,0002.86,0001.96
2022-06-25 06:49:00,,0827.7,4.99,0.00,29.8,28.8,00.0,38.6,31.7,18.3,0000.0,0005.13,0002.85,0001.94
2022-06-25 06:50:00,,0827.7,5.00,0.00,29.8,28.9,00.0,38.6,31.8,18.5,0000.0,0005.40,0002.91,0001.94
2022-06-25 06:51:00,,0827.7,5.01,0.00,29.9,28.9,00.0,38.6,31.7,18.7,0000.0,0005.50,0002.96,0001.92
2022-06-25 06:52:00,,0827.7,5.00,0.00,29.9,28.9,00.0,38.6,31.8,18.7,0000.0,0006.22,0002.97,0001.91
2022-06-25 06:53:00,,0827.7,5.00,0.00,29.9,28.9,00.0,38.7,31.8,18.6,0000.0,0006.73,0002.92,0001.91
2022-06-25 06:54:00,,0827.7,4.98,0.00,29.9,29.0,00.0,38.7,31.8,18.6,0000.0,0006.78,0002.94,0001.91
2022-06-25 06:55:00,,0827.7,5.00,0.00,29.9,29.0,00.0,38.7,31.8,18.5,0000.0,0007.62,0002.97,0001.93
2022-06-25 06:56:00,,0827.7,5.00,0.00,29.9,29.0,00.0,38.7,31.9,18.4,0000.0,0007.67,0002.91,0001.93
2022-06-25 06:57:00,,0827.7,4.99,0.00,30.0,29.0,00.0,38.7,31.9,17.9,0000.0,0007.56,0002.86,0001.92
2022-06-25 06:58:00,,0827.7,5.00,0.00,30.0,28.6,00.0,38.7,31.8,17.7,0000.0,0007.55,0002.84,0001.90
2022-06-25 06:59:00,,0827.7,5.01,0.00,29.9,27.8,00.0,38.6,31.5,17.6,0000.0,0007.59,0002.87,0001.89
